GW0206 Weather Reports


time (UTC)temp
F
wind
direction
speed
knots
gust
knots
rain 1hr
in
rain 24hr
in
rain mn
in
humidity
%
barometer
mb
20260502194519 42 192 0.9 6.1 0.00 0.03 0.02 72 1016.5
20260502194002 42 153 1.7 6.1 0.00 0.03 0.02 71 1016.5
20260502193507 42 165 0.9 7.8 0.00 0.05 0.02 72 1016.4
20260502193021 42 138 0.9 7.8 0.00 0.07 0.02 71 1016.5
20260502192506 42 135 1.7 6.1 0.00 0.08 0.02 70 1016.5
20260502192002 43 154 1.7 6.1 0.00 0.08 0.02 70 1016.6
20260502191503 43 194 1.7 6.1 0.00 0.08 0.02 67 1016.7
20260502191003 44 118 0.9 6.1 0.00 0.08 0.02 68 1016.7
20260502190503 44 215 1.7 8.7 0.00 0.08 0.02 68 1016.7
20260502190005 44 217 3.5 8.7 0.00 0.08 0.02 66 1016.7
20260502185503 45 134 1.7 8.7 0.00 0.08 0.02 67 1016.6
20260502185000 45 242 0.9 10.4 0.00 0.08 0.02 63 1016.7
20260502184504 46 248 5.2 10.4 0.00 0.09 0.02 64 1016.7
20260502184004 46 221 2.6 8.7 0.00 0.09 0.02 65 1016.7
20260502183504 46 225 4.3 8.7 0.00 0.10 0.02 66 1016.8
20260502183014 46 186 1.7 7.8 0.00 0.10 0.02 67 1016.8
20260502182506 45 193 2.6 7.8 0.00 0.10 0.02 66 1016.9
20260502182007 45 252 2.6 7.8 0.00 0.10 0.02 73 1016.9
20260502181524 44 205 3.5 7.8 0.00 0.10 0.02 74 1017.0
20260502181003 43 88 3.5 7.8 0.00 0.10 0.02 70 1017.2
20260502180503 43 189 3.5 7.8 0.00 0.11 0.02 72 1017.2
20260502170507 39 186 2.6 7.8 0.00 0.17 0.02 82 1017.2
20260502164003 38 228 2.6 8.7 0.00 0.20 0.02 83 1017.3
20260502163504 39 221 4.3 7.8 0.00 0.21 0.02 85 1017.3
20260502163007 39 165 3.5 8.7 0.00 0.21 0.02 84 1017.3
20260502162507 39 210 3.5 9.6 0.00 0.22 0.02 84 1017.3
20260502161512 39 161 2.6 10.4 0.00 0.23 0.02 84 1017.1
20260502161003 39 197 6.1 10.4 0.00 0.24 0.02 82 1017.2
20260502160504 40 211 2.6 9.6 0.00 0.24 0.02 82 1017.1
20260502152003 38 220 5.2 9.6 0.00 0.33 0.02 83 1016.8
20260502151512 38 192 5.2 7.8 0.00 0.33 0.02 85 1016.8
20260502151004 38 234 3.5 8.7 0.00 0.34 0.02 86 1016.7
20260502150504 38 195 2.6 9.6 0.00 0.34 0.02 86 1016.7
20260502130501 41 173 1.7 7.0 0.00 0.47 0.02 89 1015.4
20260502123501 40 155 1.7 4.3 0.00 0.47 0.02 95 1015.5
20260502123004 39 143 0.9 3.5 0.00 0.47 0.02 95 1015.6
20260502122502 39 111 0.9 3.5 0.00 0.47 0.02 95 1015.7
20260502122000 38 94 0.9 3.5 0.00 0.47 0.02 95 1015.7
20260502121504 38 135 0.9 3.5 0.00 0.47 0.02 95 1015.7
20260502121004 38 107 1.7 3.5 0.00 0.47 0.02 95 1015.7
20260502120506 38 155 0.9 4.3 0.00 0.47 0.02 95 1015.7
20260502115503 38 105 2.6 8.7 0.00 0.47 0.02 95 1015.7
20260502115002 38 139 2.6 6.1 0.00 0.47 0.02 96 1015.7
20260502114504 38 136 1.7 6.1 0.00 0.47 0.02 96 1015.5
20260502114002 37 141 0.9 6.1 0.00 0.47 0.02 96 1015.5
20260502113502 37 119 0.0 3.5 0.00 0.47 0.02 96 1015.4
20260502113005 37 119 0.0 3.5 0.00 0.47 0.02 96 1015.4
20260502112503 37 137 0.9 3.5 0.00 0.47 0.02 96 1015.4
20260502112007 37 122 0.9 2.6 0.00 0.47 0.02 96 1015.4
20260502111503 37 107 0.0 0.9 0.00 0.47 0.02 95 1015.4
20260502111004 37 107 0.0 0.9 0.00 0.47 0.02 95 1015.4
20260502110500 37 107 0.0 1.7 0.00 0.47 0.02 95 1015.4
20260502110004 37 107 0.0 1.7 0.00 0.47 0.02 94 1015.4
20260502105504 37 107 0.0 1.7 0.00 0.47 0.02 95 1015.3
20260502105005 37 107 0.0 2.6 0.00 0.47 0.02 95 1015.3
20260502104510 37 136 0.9 3.5 0.00 0.47 0.02 95 1015.2
20260502104008 37 104 1.7 3.5 0.00 0.47 0.02 95 1015.1
20260502103502 38 100 0.9 3.5 0.00 0.47 0.02 95 1015.1
20260502103019 38 84 1.7 3.5 0.00 0.47 0.02 95 1015.2
20260502102500 38 116 1.7 3.5 0.00 0.47 0.02 95 1015.3
20260502102001 38 113 0.9 3.5 0.00 0.47 0.02 95 1015.3
20260502101506 38 104 1.7 3.5 0.00 0.47 0.02 95 1015.2
20260502101001 38 77 0.9 2.6 0.00 0.47 0.02 95 1015.2
20260502100504 38 90 0.9 2.6 0.00 0.47 0.02 95 1015.2
20260502091505 38 58 0.9 3.5 0.01 0.47 0.02 94 1015.0
20260502091004 38 78 0.9 2.6 0.01 0.47 0.02 94 1014.9
20260502090505 38 90 0.9 2.6 0.01 0.47 0.02 94 1014.8
20260502071518 39 38 0.0 1.7 0.01 0.46 0.01 94 1015.1
20260502071005 38 38 0.0 1.7 0.01 0.46 0.01 94 1015.1
20260502070507 38 38 0.0 3.5 0.01 0.46 0.01 94 1015.1
20260502070014 38 51 0.9 3.5 0.01 0.46 0.01 94 1015.0
20260502065505 39 50 1.7 4.3 0.00 0.45 0.00 94 1015.1
20260502065010 38 46 1.7 4.3 0.00 0.45 0.00 94 1015.2
20260502064518 38 86 2.6 5.2 0.00 0.45 0.00 94 1015.3
20260502064007 38 65 2.6 6.1 0.00 0.45 0.00 94 1015.3
20260502063505 38 39 3.5 6.1 0.00 0.45 0.00 94 1015.4
20260502063009 38 59 2.6 7.0 0.00 0.45 0.00 94 1015.5
20260502062506 38 41 3.5 7.0 0.00 0.45 0.00 94 1015.5
20260502062004 38 59 1.7 7.0 0.00 0.45 0.00 94 1015.5
20260502061516 38 26 2.6 7.0 0.00 0.45 0.00 94 1015.5
20260502061003 38 38 1.7 3.5 0.00 0.45 0.00 95 1015.5
20260502060505 38 78 0.9 2.6 0.00 0.45 0.00 94 1015.6
20260502060018 38 338 0.0 0.0 0.00 0.45 0.00 94 1015.5
20260502055505 38 338 0.0 0.0 0.00 0.45 0.00 94 1015.6
20260502055005 38 338 0.0 1.7 0.00 0.45 0.00 95 1015.5
20260502054513 38 338 0.0 2.6 0.00 0.45 0.00 94 1015.7
20260502054005 38 338 0.9 2.6 0.00 0.45 0.00 94 1015.8
20260502053506 38 288 0.0 1.7 0.00 0.45 0.00 94 1015.7
20260502053018 38 288 0.0 1.7 0.00 0.45 0.00 94 1015.8
20260502052506 38 270 0.0 0.9 0.00 0.45 0.00 94 1015.8
20260502052007 38 270 0.0 1.7 0.00 0.45 0.00 94 1015.8
20260502051520 38 270 0.0 1.7 0.00 0.45 0.00 94 1015.7
20260502051007 38 270 0.0 0.9 0.00 0.45 0.00 94 1015.9
20260502050504 38 270 0.0 1.7 0.00 0.45 0.00 94 1015.8
20260502050019 38 270 0.0 1.7 0.00 0.45 0.00 94 1015.7
20260502045507 38 270 0.9 1.7 0.00 0.45 0.00 94 1015.7
20260502045006 38 270 0.0 1.7 0.00 0.45 0.00 94 1015.8
20260502044519 38 270 0.9 1.7 0.00 0.45 0.00 95 1015.7
20260502044008 38 270 0.9 2.6 0.00 0.45 0.00 94 1015.7
20260502043511 38 273 0.9 2.6 0.00 0.45 0.00 94 1015.8
20260502043024 38 5 0.9 1.7 0.00 0.45 0.00 94 1015.8
20260502042506 38 13 0.0 1.7 0.00 0.45 0.00 94 1015.9
20260502042006 38 13 0.0 1.7 0.00 0.45 0.00 94 1015.9
20260502041520 38 13 0.0 2.6 0.00 0.45 0.00 94 1015.9
20260502041010 38 13 0.9 2.6 0.00 0.45 0.00 94 1016.0
20260502040509 38 10 0.9 2.6 0.00 0.45 0.00 94 1016.1
20260502040026 38 11 0.9 2.6 0.00 0.45 0.00 94 1016.1
20260502035505 38 350 0.0 2.6 0.00 0.45 0.45 94 1015.9
20260502035007 38 165 0.9 1.7 0.00 0.45 0.45 94 1016.0
20260502034523 37 165 0.0 0.9 0.00 0.45 0.45 94 1016.1
20260502034010 37 165 0.0 0.0 0.00 0.45 0.45 94 1016.2
20260502033506 37 165 0.0 0.0 0.00 0.45 0.45 94 1016.1
20260502033035 37 165 0.0 0.9 0.00 0.45 0.45 94 1016.1
20260502032504 37 165 0.0 0.9 0.00 0.45 0.45 94 1016.1
20260502032008 37 165 0.0 0.9 0.00 0.45 0.45 94 1016.0
20260502031525 37 165 0.0 0.9 0.00 0.45 0.45 94 1016.0
20260502031009 37 165 0.0 0.0 0.00 0.45 0.45 94 1016.0
20260502030509 37 165 0.0 0.9 0.00 0.45 0.45 94 1016.0
20260502030006 37 165 0.0 1.7 0.00 0.45 0.45 94 1015.9
20260502025505 37 165 0.0 1.7 0.00 0.45 0.45 94 1015.9
20260502025005 37 165 0.0 0.9 0.00 0.45 0.45 94 1015.9
20260502024508 37 165 0.0 0.0 0.00 0.45 0.45 94 1015.9
20260502024005 37 165 0.0 0.0 0.00 0.45 0.45 93 1015.8
20260502023501 37 165 0.0 0.9 0.00 0.45 0.45 93 1015.9
20260502023008 37 165 0.0 0.9 0.00 0.45 0.45 93 1015.9
20260502022502 37 165 0.0 0.0 0.00 0.45 0.45 93 1015.9
20260502022004 37 165 0.0 0.0 0.00 0.45 0.45 94 1015.8
20260502021510 36 165 0.0 0.0 0.00 0.45 0.45 93 1015.8
20260502021004 36 165 0.0 0.0 0.00 0.45 0.45 93 1015.7
20260502020502 36 165 0.0 0.0 0.00 0.45 0.45 93 1015.8
20260502020016 36 165 0.0 0.0 0.00 0.45 0.45 92 1015.8
20260502015510 36 165 0.0 0.0 0.00 0.45 0.45 92 1015.7
20260502015012 36 165 0.0 0.0 0.00 0.45 0.45 92 1015.7
20260502014510 36 165 0.0 0.0 0.00 0.45 0.45 92 1015.6
20260502014006 36 165 0.0 0.0 0.00 0.45 0.45 92 1015.5
20260502013506 36 165 0.0 0.0 0.00 0.45 0.45 91 1015.5
20260502013005 36 165 0.0 0.0 0.00 0.45 0.45 90 1015.5
20260502012504 36 165 0.0 0.0 0.00 0.45 0.45 90 1015.5
20260502012006 37 165 0.0 0.0 0.00 0.45 0.45 90 1015.4
20260502011510 37 165 0.0 0.0 0.00 0.45 0.45 90 1015.4
20260502011005 37 165 0.0 0.0 0.00 0.45 0.45 89 1015.4
20260502010504 37 165 0.0 0.0 0.00 0.45 0.45 89 1015.3
20260502010019 37 165 0.0 0.0 0.00 0.45 0.45 89 1015.3
20260502005505 38 165 0.0 0.0 0.00 0.45 0.45 88 1015.3
20260502005006 38 165 0.0 0.0 0.00 0.45 0.45 88 1015.3
20260502004518 38 165 0.0 0.0 0.00 0.45 0.45 88 1015.1
20260502004010 38 165 0.0 0.0 0.00 0.45 0.45 87 1015.0
20260502003502 39 165 0.0 0.9 0.00 0.45 0.45 87 1014.9
20260502003014 39 165 0.0 0.9 0.00 0.45 0.45 87 1014.7
20260502002506 39 165 0.0 0.0 0.00 0.45 0.45 87 1014.6
20260502002010 40 165 0.0 0.0 0.00 0.45 0.45 86 1014.5
20260502001513 40 165 0.0 0.9 0.00 0.45 0.45 86 1014.4
20260502001007 40 165 0.0 1.7 0.00 0.45 0.45 86 1014.4
20260502000504 40 165 0.0 1.7 0.00 0.45 0.45 85 1014.3
20260502000010 41 165 0.0 1.7 0.00 0.45 0.45 85 1014.3
20260501235508 41 165 0.0 1.7 0.00 0.45 0.45 85 1014.3
20260501235008 41 165 0.0 1.7 0.00 0.45 0.45 85 1014.1
20260501234513 41 161 0.0 0.0 0.00 0.45 0.45 84 1014.1
20260501234005 41 155 0.0 3.5 0.00 0.45 0.45 84 1014.2
20260501233507 42 160 0.0 5.2 0.00 0.45 0.45 84 1014.2
20260501233019 42 175 1.7 5.2 0.00 0.45 0.45 83 1014.2
20260501232512 42 173 0.9 5.2 0.00 0.45 0.45 82 1014.2
20260501232005 43 185 1.7 5.2 0.00 0.45 0.45 81 1014.2
20260501231518 43 198 1.7 7.8 0.00 0.45 0.45 83 1014.3
20260501231008 43 234 3.5 7.8 0.00 0.45 0.45 81 1014.2
20260501230510 43 175 0.9 4.3 0.00 0.45 0.45 84 1014.3
20260501230017 42 184 0.0 7.0 0.01 0.45 0.45 85 1014.2
20260501225508 42 187 0.9 7.8 0.01 0.45 0.45 84 1014.2
20260501225011 42 209 3.5 7.8 0.01 0.45 0.45 85 1014.2
20260501224510 42 189 1.7 9.6 0.01 0.45 0.45 85 1014.2
20260501224005 42 89 2.6 9.6 0.01 0.45 0.45 85 1014.1
20260501223506 42 177 2.6 7.8 0.01 0.45 0.45 87 1014.0
20260501223033 42 157 2.6 7.0 0.01 0.45 0.45 87 1014.0
20260501222506 42 186 1.7 9.6 0.01 0.45 0.45 86 1013.8
20260501222010 42 188 3.5 9.6 0.01 0.45 0.45 86 1013.8
20260501221529 42 187 4.3 9.6 0.01 0.45 0.45 87 1013.7
20260501221007 42 200 4.3 12.2 0.01 0.45 0.45 86 1013.7
20260501220506 43 219 6.1 12.2 0.01 0.45 0.45 88 1013.7
20260501220030 43 213 6.1 11.3 0.00 0.44 0.44 91 1013.4
20260501215509 42 187 3.5 9.6 0.00 0.44 0.44 92 1013.3
20260501215003 42 171 3.5 10.4 0.00 0.44 0.44 93 1013.2
20260501214530 41 199 2.6 10.4 0.00 0.44 0.44 92 1013.1
20260501214009 41 173 3.5 9.6 0.00 0.44 0.44 92 1013.1
20260501213512 41 194 1.7 13.9 0.00 0.44 0.44 92 1013.1
20260501213015 41 169 4.3 13.9 0.00 0.44 0.44 92 1013.0
20260501212506 41 182 5.2 10.4 0.00 0.44 0.44 92 1012.9
20260501212006 41 180 2.6 10.4 0.00 0.44 0.44 92 1012.8
20260501211520 42 200 4.3 10.4 0.00 0.44 0.44 92 1012.7
20260501211008 42 144 3.5 13.0 0.00 0.44 0.44 93 1012.7
20260501210506 42 178 3.5 13.0 0.00 0.44 0.44 93 1012.7
20260501210004 42 205 3.5 7.8 0.00 0.44 0.44 94 1012.5
20260501205502 42 164 2.6 6.1 0.00 0.44 0.44 94 1012.4
20260501205002 42 186 3.5 6.1 0.00 0.44 0.44 94 1012.3
20260501204507 42 169 2.6 7.8 0.00 0.44 0.44 95 1012.3
20260501204003 42 152 2.6 7.8 0.00 0.44 0.44 94 1012.2
20260501203502 42 142 3.5 9.6 0.02 0.44 0.44 94 1012.1
20260501203009 42 189 3.5 9.6 0.04 0.44 0.44 94 1012.1
20260501202504 42 194 2.6 7.8 0.05 0.44 0.44 94 1012.2
20260501202004 42 188 1.7 7.0 0.05 0.44 0.44 94 1012.1
20260501201502 42 177 3.5 9.6 0.05 0.44 0.44 94 1012.0
20260501201002 42 168 3.5 9.6 0.05 0.44 0.44 94 1012.0
20260501200501 42 188 2.6 9.6 0.05 0.44 0.44 94 1012.0
20260501200005 42 223 3.5 7.8 0.05 0.44 0.44 94 1011.9
20260501195502 43 196 4.3 8.7 0.05 0.44 0.44 95 1011.9
20260501195002 42 184 1.7 8.7 0.05 0.44 0.44 95 1011.9